Regional Weather Roundup
Issued by NWS Wakefield, VA

Home | Current Version | Previous Version | Text Only | Print | Product List | Glossary Off
Versions: 1 2 3 4 5 6 7 8 9 10 11 12 13 14 15 16 17 18 19 20 21 22 23 24 25 26 27

000
ASUS41 KAKQ 250815
RWRAKQ

REGIONAL WEATHER ROUNDUP
NATIONAL WEATHER SERVICE WAKEFIELD VA
400 AM EDT MON JUL 25 2016

Note: "fair" indicates few or no clouds below 12,000 feet with no
significant weather and/or obstructions to visibility. * = Denotes
station may not report precipitation (e.g., rain,snow,etc.),
thunder or fog.

VAZ042-051-052>054-056-250900-
NORTHERN VIRGINIA

CITY           SKY/WX    TMP DP  RH WIND       PRES   REMARKS
WASH NATIONAL  CLOUDY    82  77  84 N3        29.96R
DULLES         MOCLDY    78  73  84 CALM      29.97S
FORT BELVOIR   NOT AVBL
QUANTICO       FAIR      80  75  84 NW6       29.96R
FREDERICKSBRG* FAIR      82  75  80 SW3       29.96R
STAFFORD*      FAIR      79  74  85 CALM      30.00S
WARRENTON      FAIR      76  71  84 CALM      29.98R
CULPEPER*      FAIR      76  75  98 CALM      29.99R
MANASSAS*      FAIR      79  73  83 CALM      29.97S
LEESBURG*      FAIR      77  73  88 W3        29.98S
WINCHESTER     FAIR      73  72  94 CALM      30.00S
FRONT ROYAL*   FAIR      73  72  94 CALM      30.00S
LURAY*         FAIR      73  73 100 CALM      30.02S
$$

VAZ048-049-060>072-079>083-250900-
CENTRAL AND SOUTH CENTRAL VIRGINIA

CITY           SKY/WX    TMP DP  RH WIND       PRES   REMARKS
RICHMOND       FAIR      76  73  91 S6        29.99R
CHESTERFIELD*  FAIR      75  63  64 CALM      30.01R
PETERSBURG*    FAIR     N/A N/A N/A CALM      30.00S
HANOVER        FAIR      81  72  74 SW5       30.00R
TAPPAHANNOCK*  FAIR      80  76  89 S3        29.98R
QUINTON*       FAIR      76  76  98 CALM      29.98S
CHARLOTTSVILLE FAIR      80  74  81 CALM      29.99R
GORDONSVILLE*  FAIR      76  75  98 CALM      29.99R
ORANGE*          N/A     77  77 100 CALM      30.00S
LOUISA*        FAIR      82  75  78 SW3       29.99R
BUMPASS*       FAIR      75  74  99 CALM      29.99R
FARMVILLE*     FAIR     N/A N/A N/A CALM      29.99R
CREWE*         FAIR      74  74 100 CALM      30.01R
FORT PICKETT*  FAIR      74  73  98 SW8       30.01R
CHASE CITY*    FAIR      74  72  94 CALM      30.02R
CLARKSVILLE*   FAIR      73  73 100 CALM      30.01R
SOUTH HILL*    FAIR      74  73  98 CALM      30.07R
LAWRENCEVILLE* FAIR      75  74  99 CALM      30.01R
EMPORIA*       FAIR      77  73  88 SE3       30.02R
$$

VAZ088>098-250900-
SOUTHEAST VIRGINIA

CITY           SKY/WX    TMP DP  RH WIND       PRES   REMARKS
NORFOLK        FAIR      81  76  84 SW10      30.00R
VIRGINIA BEACH MOCLDY    84  75  74 SW9       29.99R
NORFOLK NAVAL  MOCLDY    81  76  84 SW8       30.01R
WEST POINT*    FAIR      79  75  86 SE3       29.99S
SALUDA*        FAIR      80  77  90 SW5       29.98S
NEWPORT NEWS   FAIR      81  77  88 SW9       29.99S
LANGLEY AFB    FAIR      82  77  85 S12       29.99S
FORT EUSTIS    FAIR      81  77  89 SW6       29.97S
WILLIAMSBURG*  FAIR      82  77  83 W5        30.00S
HR EXEC AP*    FAIR      79  73  83 SW5       30.03R
FRANKLIN*      FAIR      77  75  92 S5        30.01S
US460-WAKEFLD  FAIR      77  75  93 S3        30.00R FOG
$$

VAZ020-022-025-037-045-250900-
WEST CENTRAL AND SOUTHWEST VIRGINIA

CITY           SKY/WX    TMP DP  RH WIND       PRES   REMARKS
STAUNTON*      FAIR      70  69  95 CALM      30.06S
WAYNESBORO*    FAIR      71  69  94 CALM      30.06R
HOT SPRINGS VA FAIR      72  66  83 W9        30.20S
LYNCHBURG      FAIR      72  71  97 CALM      30.05R
DANVILLE       FAIR      72  71  97 CALM      30.02R
SOUTH BOSTON*  FAIR      71  70  95 CALM      30.01S
MARTINSVILLE   FAIR      69  68  96 CALM      30.06S FOG
ROANOKE        FAIR      76  69  79 CALM      30.07R
BLACKSBURG     FAIR      68  68  99 CALM      30.14S
DUBLIN*        FAIR      70  69  96 CALM      30.13R
MARION*        FAIR      68  67  96 CALM      30.17R FOG
HILLSVILLE*    FAIR      70  69  95 CALM      30.14R
RICHLANDS*     PTSUNNY   72  71  97 CALM      30.15R
WISE*          FAIR      72  64  78 CALM      30.16S
ABINGDON*      FAIR      73  71  93 CALM      30.11S
$$

MDZ021>025-VAZ099-100-250900-
SOUTHERN MARYLAND AND THE DELMARVA PENINSULA

CITY           SKY/WX    TMP DP  RH WIND       PRES   REMARKS
PATUXENT RIVER PTCLDY    80  75  84 E3        29.96S
BAY BRIDGE APT CLOUDY    81  72  74 SW3       29.95S
LEONARDTOWN    MOCLDY    81  73  78 CALM      29.98F
DOVER          CLOUDY    77  77 100 SE3       29.93F
GEORGETOWN     LGT RAIN  79  77  94 S5        29.94F FOG
EASTON         CLOUDY    75  75  99 CALM      29.98S
CAMBRIDGE      CLOUDY    73  72  94 SW3       29.94S
SALISBURY      CLOUDY    80  75  84 CALM      29.96S
OCEAN CITY     CLOUDY   N/A N/A N/A S3        29.95F
WALLOPS ISLAND FAIR      80  78  94 SW5       29.97S
ACCOMACK*      FAIR      81  75  83 CALM      29.98S
$$

NCZ012>017-030>032-250900-
NORTH CENTRAL AND EASTERN NORTH CAROLINA

CITY           SKY/WX    TMP DP  RH WIND       PRES   REMARKS
ROANOKE RAPIDS FAIR      73  73 100 CALM      30.02R FOG
RALEIGH        CLEAR     78  75  90 SW6       30.02S
ELIZABETH CITY CLOUDY    78  76  93 SW8       30.02R
AHOSKIE*       CLEAR     75  74  98 S5        30.02R
EDENTON*       CLOUDY    81  81 100 SW10G16   30.03R
CURRITUCK*     CLOUDY    79  78  95 SW5       30.02S
KILL DEVIL HLS CLOUDY    80  76  88 SW12G18   30.01S
MANTEO           N/A     79  79  99 SW14      30.03S
CAPE HATTERAS  CLEAR     82  77  84 W8        30.04S
TARBORO*       FAIR      78  76  93 CALM      30.03R
GOLDSBORO      PTCLDY    78  78 100 S6        30.01S
WASHINGTON     CLEAR     77  74  92 S6        30.03S
GREENVILLE     CLEAR     77  77 100 SW8       30.04R
NEW BERN       CLEAR     78  75  90 S6        30.05S
WILMINGTON     PTCLDY    79  76  90 S3        30.04F
$$

VAZ048-250900-
ELSEWHERE

CITY           SKY/WX    TMP DP  RH WIND       PRES   REMARKS
HARRISBURG PA  CLOUDY    76  75  97 CALM      29.94F
BALTIMORE      CLOUDY    79  73  82 CALM      29.95F
ANNAPOLIS      CLOUDY    81  73  76 NW6       29.95R
ANDREWS AFB    CLOUDY    76  73  91 N6        29.96R
PHILADELPHIA   CLOUDY    80  71  74 S8        29.94F
GREENSBORO     PTCLDY    78  73  84 SW6       30.03R
ROCKY MOUNT    CLEAR     77  76  96 SW5       30.02R
$$

VAZ100-250900-
MARINE

STATION/POSITION TIME  TEMP    WIND        PRES    WAVE   SWELL
                       AIR SEA DIR/SP/G            HT/PER HT/PER
                 (UTC) (F)     (DEG/KT/KT) (MB)    (FT/S) (FT/S)
BRANDYWINE LGT   0730   73     180/  9/ 10   N/A
CAPE MAY NJ      0700   78 72  140/  6/ 10 1014.2F
LEWES DE         0700   78 74  150/  4/  5 1014.2F
OCEAN-CITY-INLET 0700   76 69  200/  4/  6 1015.0F
WACHAPREAGUE VA  0700   83 85  230/  4/  5 1014.9R
THOMAS POINT MD  0800   81 83  260/  7/  8 1015.5R
GOOSES REEF MD   0800   83 84  180/  8/ 10 1015.0F   1/ 3
COVE POINT MD    0700   79      90/ 12/ 16 1015.4R
SOLOMONS ISLAND  0700   82 86   30/ 11/ 15   N/A
BISHOPS HEAD MD  0700   81 86  340/ 13/ 16 1015.7R
PINEY POINT MD   0700          250/  3/  6   N/A
POTOMAC MD       0800   84 84  250/ 10/ 12 1013.4F   1/ 2
CAMBRIDGE MD     0700   79 86   50/  8/ 11 1013.5F
LEWISETTA VA     0700   83 87  230/  7/  8 1014.1F
RAPPAHANNOCK LGT 0700          200/ 14/ 15 1015.4S
STINGRAY PT      0800   85 85  170/ 12/ 14 1015.3R
YORK RVR RNG VA  0700   84     230/ 12/ 13 1014.7R
YORKTOWN VA      0700   83 85  220/  8/ 10 1014.9R
JAMESTOWN VA     0800   81 88  210/ 12/ 14   N/A     0
DOMINION TERM VA 0700   82     230/ 11/ 14 1015.6R
KIPTOPEKE VA     0700      80  220/  7/  8   N/A
CHES BAY BRIDGE  0700   82 70  200/ 14/ 17 1015.2R
CAPE HENRY VA    0700   82     210/  7/ 11   N/A
WILLOUBY STN VA  0700   82     230/ 14/ 16   N/A
CAPE HENRY BUOY  0712      77                N/A     2/ 8
1ST LANDING BUOY 0800   81 78  230/ 10/ 14 1015.4R
CAPE CHARLES BUO 0726      74                N/A     2/10
OFFSHORE WE BUOY 0721      82                N/A     3/ 4
64NM E OF VA BCH 0750   82 81  240/ 16/ 19 1015.8    3/ 5   2/ 9
DUCK PIER NC     0700   82 61  230/ 16/ 20 1015.7S
44100 DUCK FRF   0705      76                N/A     2/ 8
44056 DUCK FRF   0711      66                N/A     1/ 8
OREGON INLET NC  0700   83 86  220/ 16/ 20 1016.5S
HATTERAS NC      0700   81 84  220/  6/  9 1017.0F
DIAMOND SHLS NC  0750   84 85  240/ 14/ 16 1017.3S   3/ 4   2/ 8
CAPE LOOKOUT NC  0800   83     220/  7/  9 1017.2S
$$




USA.gov is the U.S. government's official web portal to all federal, state and local government web resources and services.